Springfield, CO

7:38 AM MDT on September 22, 2017 (GMT -0600)
Springfield

Weather History for KSPD - November, 2013

Change the Weather History Date:

Sunday, November 3, 2013

  Actual Average Record
Temperature  
Mean Temperature 41 °F -  
Max Temperature 81 °F 63 °F 81 °F (2013)
Min Temperature 1 °F 31 °F 1 °F (2013)
Degree Days  
Heating Degree Days 24 18  
Month to date heating degree days 68 53  
Since 1 July heating degree days 489 498  
Cooling Degree Days 0 0  
Month to date cooling degree days 0 0  
Year to date cooling degree days 1358 1028  
Moisture  
Dew Point 23 °F    
Average Humidity 56    
Maximum Humidity 100    
Minimum Humidity 12    
Precipitation  
Precipitation 0.00 in 0.02 in 0.03 in (2003)
Month to date precipitation 0.00  
Year to date precipitation 13.50  
Sea Level Pressure  
Sea Level Pressure 29.59 in    
Wind  
Wind Speed 17 mph (SW)    
Max Wind Speed 31 mph    
Max Gust Speed 40 mph    
T = Trace of Precipitation, MM = Missing Value Source: NWS Daily Summary

Daily Weather History Graph

Daily Weather History Graph

Search for Another Location

Airport or City:

Trip Planner

Search our weather history database for the weather conditions in past years. The results will help you decide how hot, cold, wet, or windy it might be!

Date:

Astronomy

Nov. 03, 2013 Rise Set
Actual Time 6:17 AM MST 4:50 PM MST
Civil Twilight 5:50 AM MST 5:17 PM MST
Nautical Twilight 5:19 AM MST 5:48 PM MST
Astronomical Twilight 4:48 AM MST 6:18 PM MST
Moon 6:23 AM MST (11/3) 5:07 PM MST (11/3)
Length of Visible Light 11h 27m
Length of Day
10h 32m
New Moon, 0% of the Moon is Illuminated
Nov 3
New Moon
Nov 9
First Quarter
Nov 17
Full
Nov 25
Last Quarter
Dec 2
New

Hourly Weather History & Observations

Time (MST) Temp. Windchill Dew Point Humidity Pressure Visibility Wind Dir Wind Speed Gust Speed Precip Events Conditions
12:56 AM 50.0 °F - 27.0 °F 41% 29.73 in - SSW 18.4 mph 25.3 mph N/A   Unknown
1:56 AM 54.0 °F - 25.0 °F 33% 29.69 in - SW 25.3 mph 38.0 mph N/A   Unknown
1:56 AM 53.1 °F - 25.0 °F 34% 29.69 in - SSW 20.7 mph 28.8 mph N/A   Unknown
2:56 AM 55.0 °F - 25.0 °F 31% 29.67 in - SW 17.3 mph 28.8 mph N/A   Unknown
3:56 AM 51.1 °F - 25.0 °F 36% 29.67 in - SSW 18.4 mph 28.8 mph N/A   Unknown
4:56 AM 48.9 °F - 26.1 °F 41% 29.67 in - SSW 18.4 mph - N/A   Unknown
5:56 AM 48.0 °F - 26.1 °F 42% 29.66 in - SSW 15.0 mph 20.7 mph N/A   Unknown
6:56 AM 50.0 °F - 25.0 °F 38% 29.64 in - SSW 17.3 mph 27.6 mph N/A   Unknown
7:56 AM 52.0 °F - 25.0 °F 35% 29.65 in - SSW 20.7 mph 27.6 mph N/A   Unknown
8:56 AM 59.0 °F - 24.1 °F 26% 29.61 in - SSW 18.4 mph 28.8 mph N/A   Unknown
9:56 AM 63.0 °F - 24.1 °F 23% 29.59 in - SW 17.3 mph 27.6 mph N/A   Unknown
10:56 AM 68.0 °F - 23.0 °F 18% 29.56 in - South 19.6 mph 26.5 mph N/A   Unknown
11:56 AM 73.9 °F - 19.0 °F 13% 29.50 in - SW 25.3 mph 33.4 mph N/A   Unknown
12:56 PM 75.0 °F - 19.9 °F 13% 29.46 in - WSW 19.6 mph 29.9 mph N/A   Unknown
1:56 PM 1.0 °F -18.7 °F 1.0 °F 100% 29.66 in - WSW 16.1 mph 25.3 mph N/A   Unknown
2:56 PM 73.0 °F - 21.9 °F 15% 29.45 in - SW 21.9 mph 27.6 mph N/A   Unknown
3:56 PM 71.1 °F - 21.9 °F 16% 29.47 in - WSW 11.5 mph 21.9 mph N/A   Unknown
4:56 PM 64.9 °F - 23.0 °F 20% 29.49 in - SW 12.7 mph - N/A   Unknown
5:56 PM 57.9 °F - 24.1 °F 27% 29.52 in - SW 10.4 mph - N/A   Unknown
6:56 PM 53.1 °F - 25.0 °F 34% 29.54 in - SW 10.4 mph - N/A   Unknown
7:56 PM 50.0 °F - 26.1 °F 39% 29.56 in - WSW 12.7 mph - N/A   Unknown
8:56 PM 48.0 °F - 26.1 °F 42% 29.56 in - SW 9.2 mph - N/A   Unknown
9:56 PM 48.9 °F - 24.1 °F 38% 29.56 in - WSW 12.7 mph - N/A   Unknown
10:56 PM 51.1 °F - 25.0 °F 36% 29.56 in - WSW 12.7 mph - N/A   Unknown